SL-16 DEB, 22445

Orbit data source: Space-Track

SL-16 DEB, 22445 is space debris in LEO originally from a launch on Fri, 25 Dec 1992 UTC launched from the Tyuratam Missile And Space Complex (TTMTR). Debris objects in space refer to the collection of defunct objects orbiting the Earth. Examples of debris include non-operational satellites, rocket bodies, and fragments generated from explosions, collisions, or faulty payload assembly.

Loading next visibility...
Identifier
22445, 1992-093EN
Orbit
LEO
Country
Flag of CISCIS
Related business
Manufacturer
Unknown
Mission
Spacecraft
Bus & Motor
Unknown
Mass
Unknown
Launch date (UTC)
1992-12-25 (33 years ago)
Launch vehicle
Unknown
Launch site
Tyuratam Missile And Space Complex (TTMTR)
Object type
Payload
Rocket body
Debris
Shape & HBR
Unknown shape, 0.1 m
Radar Cross Section
Medium (>0.1 m² and <1 m²)

Expand to show TLE details & history
Last TLE update: 3 days ago

TLE from 3 days ago
0 SL-16 DEB
1 22445U 92093EN  26170.90611945  .00000682  00000-0  36186-3 0  9994
2 22445  71.2883 357.3635 0074891 180.7699 179.3324 14.15555222718781
Epoch: 2026-06-19T21:44Z
TLE epoch observation values (Epoch: 2026-06-19T21:44:48.720Z)
Latitude
0.00001°
Longitude
123.03213°
Altitude
896.909 km
Speed
7.376 km/s
True Right ascension
23h 49m 27s
True Declination
0° 00' 00"
Sunlit
Object was in daylight at epoch
Visualization orbit readout
Latitude
Unknown
Longitude
Unknown
Altitude
Unknown
Speed
Unknown
Apparent Right ascension
Unknown
Apparent Declination
Unknown
Sunlit
N/A
Visualization observer readout
Local Sidereal Time
11:35:26
Azimuth
Unknown
Elevation
Unknown
Doppler factor
Unknown
Orbital elements
Apogee altitude
892.365 km
Perigee altitude
784.275 km
Semi-major axis
7,216.457 km
Eccentricity
0.00749
Inclination
71.2883°
RAAN
357.3635°
Arg. of periapsis
180.7699°
True anomaly
179.34231°
Mean anomaly
179.3324°
Eccentric anomaly
179.33736°
Mean motion
3.54044 °/min
Orbital period
101.68 mins
BSTAR
0.00036186
Loading maneuver chart data...
Computing Atmospheric mass density...
Loading historical data...
Loading historical data...
Loading historical data...
Loading historical data...
Loading historical data...
Loading historical data...
Loading historical data...

Documentation

Showing up to 5 results
|